| time (UTC) | temp C | wind direction | speed KPH | gust KPH | rain 1hr cm | rain 24hr cm | rain mn cm | humidity % | barometer mb |
| 20260510140003 | 11 | 58 | 6.4 | 24.1 | 0.00 | 0.00 | 0.00 | 63 | 1044.6 |
| 20260510135403 | 11 | 56 | 3.2 | 24.1 | 0.00 | 0.00 | 0.00 | 62 | 1044.9 |
| 20260510134503 | 11 | 55 | 4.8 | 17.7 | 0.00 | 0.00 | 0.00 | 62 | 1044.8 |
| 20260510133603 | 11 | 45 | 4.8 | 17.7 | 0.00 | 0.00 | 0.00 | 62 | 1044.9 |
| 20260510132703 | 11 | 39 | 3.2 | 20.9 | 0.00 | 0.00 | 0.00 | 63 | 1045.1 |
| 20260510131803 | 11 | 54 | 3.2 | 17.7 | 0.00 | 0.00 | 0.00 | 64 | 1044.9 |
| 20260510130903 | 11 | 59 | 3.2 | 20.9 | 0.00 | 0.00 | 0.00 | 65 | 1045.0 |
| 20260510130003 | 11 | 45 | 9.7 | 20.9 | 0.00 | 0.00 | 0.00 | 66 | 1045.3 |
| 20260510125403 | 11 | 58 | 8.0 | 17.7 | 0.00 | 0.00 | 0.00 | 65 | 1045.2 |
| 20260510124503 | 11 | 38 | 4.8 | 12.9 | 0.00 | 0.00 | 0.00 | 65 | 1045.2 |
| 20260510123603 | 11 | 40 | 6.4 | 22.5 | 0.00 | 0.00 | 0.00 | 64 | 1045.2 |
| 20260510122703 | 11 | 49 | 12.9 | 25.7 | 0.00 | 0.00 | 0.00 | 66 | 1045.4 |
| 20260510121803 | 11 | 51 | 3.2 | 24.1 | 0.00 | 0.00 | 0.00 | 67 | 1045.4 |
| 20260510120903 | 11 | 49 | 3.2 | 22.5 | 0.00 | 0.00 | 0.00 | 67 | 1045.3 |
| 20260510120003 | 12 | 53 | 4.8 | 24.1 | 0.00 | 0.00 | 0.00 | 65 | 1045.7 |
| 20260510115403 | 11 | 58 | 12.9 | 24.1 | 0.00 | 0.00 | 0.00 | 66 | 1045.3 |
| 20260510114503 | 11 | 44 | 6.4 | 22.5 | 0.00 | 0.00 | 0.00 | 69 | 1045.6 |
| 20260510113603 | 11 | 59 | 6.4 | 17.7 | 0.00 | 0.00 | 0.00 | 70 | 1045.6 |
| 20260510112703 | 12 | 51 | 3.2 | 22.5 | 0.00 | 0.00 | 0.00 | 67 | 1045.7 |
| 20260510111803 | 12 | 57 | 4.8 | 17.7 | 0.00 | 0.00 | 0.00 | 68 | 1045.8 |
| 20260510110903 | 12 | 48 | 6.4 | 22.5 | 0.00 | 0.00 | 0.00 | 66 | 1045.8 |
| 20260510110003 | 11 | 32 | 3.2 | 17.7 | 0.00 | 0.00 | 0.00 | 68 | 1046.0 |
| 20260510105617 | 11 | 56 | 11.3 | 17.7 | 0.00 | 0.00 | 0.00 | 67 | 1046.1 |
| 20260510104503 | 11 | 49 | 9.7 | 20.9 | 0.00 | 0.00 | 0.00 | 68 | 1046.0 |
| 20260510103603 | 11 | 42 | 8.0 | 29.0 | 0.00 | 0.00 | 0.00 | 67 | 1046.1 |
| 20260510102703 | 11 | 44 | 3.2 | 17.7 | 0.00 | 0.00 | 0.00 | 66 | 1045.9 |
| 20260510101803 | 11 | 47 | 8.0 | 20.9 | 0.00 | 0.00 | 0.00 | 65 | 1046.2 |
| 20260510100903 | 11 | 53 | 8.0 | 24.1 | 0.00 | 0.00 | 0.00 | 66 | 1045.9 |
| 20260510100003 | 12 | 39 | 11.3 | 33.8 | 0.00 | 0.00 | 0.00 | 63 | 1046.1 |
| 20260510095403 | 12 | 64 | 6.4 | 33.8 | 0.00 | 0.00 | 0.00 | 62 | 1046.2 |
| 20260510094503 | 12 | 63 | 6.4 | 20.9 | 0.00 | 0.00 | 0.00 | 67 | 1045.8 |
| 20260510093603 | 12 | 42 | 6.4 | 22.5 | 0.00 | 0.00 | 0.00 | 66 | 1045.9 |
| 20260510092703 | 11 | 59 | 8.0 | 24.1 | 0.00 | 0.00 | 0.00 | 68 | 1046.1 |
| 20260510091803 | 11 | 52 | 8.0 | 25.7 | 0.00 | 0.00 | 0.00 | 70 | 1046.2 |
| 20260510090903 | 11 | 56 | 6.4 | 25.7 | 0.00 | 0.00 | 0.00 | 71 | 1046.3 |
| 20260510090003 | 11 | 46 | 6.4 | 20.9 | 0.00 | 0.00 | 0.00 | 72 | 1046.4 |
| 20260510085403 | 11 | 42 | 4.8 | 20.9 | 0.00 | 0.00 | 0.00 | 72 | 1046.5 |
| 20260510084715 | 11 | 71 | 6.4 | 17.7 | 0.00 | 0.00 | 0.00 | 73 | 1046.4 |
| 20260510083603 | 11 | 48 | 3.2 | 20.9 | 0.00 | 0.00 | 0.00 | 73 | 1046.5 |
| 20260510082703 | 10 | 53 | 8.0 | 20.9 | 0.00 | 0.00 | 0.00 | 74 | 1046.8 |
| 20260510082012 | 10 | 41 | 8.0 | 22.5 | 0.00 | 0.00 | 0.00 | 75 | 1046.6 |
| 20260510080903 | 10 | 54 | 4.8 | 20.9 | 0.00 | 0.00 | 0.00 | 75 | 1046.6 |
| 20260510080003 | 10 | 45 | 3.2 | 20.9 | 0.00 | 0.00 | 0.00 | 77 | 1046.4 |
| 20260510075403 | 10 | 38 | 4.8 | 17.7 | 0.00 | 0.00 | 0.00 | 77 | 1046.5 |
| 20260510074503 | 10 | 52 | 3.2 | 17.7 | 0.00 | 0.00 | 0.00 | 78 | 1046.6 |
| 20260510073603 | 10 | 54 | 8.0 | 22.5 | 0.00 | 0.00 | 0.00 | 78 | 1046.7 |
| 20260510072703 | 10 | 30 | 6.4 | 24.1 | 0.00 | 0.00 | 0.00 | 79 | 1046.6 |
| 20260510071803 | 10 | 65 | 4.8 | 17.7 | 0.00 | 0.00 | 0.00 | 80 | 1046.7 |
| 20260510070903 | 10 | 43 | 3.2 | 17.7 | 0.00 | 0.00 | 0.00 | 80 | 1046.6 |
| 20260510070003 | 9 | 26 | 9.7 | 17.7 | 0.00 | 0.00 | 0.00 | 80 | 1046.4 |
| 20260510065403 | 9 | 40 | 6.4 | 17.7 | 0.00 | 0.00 | 0.00 | 81 | 1046.4 |
| 20260510064503 | 9 | 69 | 3.2 | 20.9 | 0.00 | 0.00 | 0.00 | 82 | 1046.3 |
| 20260510063814 | 9 | 59 | 3.2 | 17.7 | 0.00 | 0.00 | 0.00 | 82 | 1046.5 |
| 20260510062703 | 9 | 60 | 3.2 | 17.7 | 0.00 | 0.00 | 0.00 | 83 | 1046.4 |
| 20260510061803 | 9 | 36 | 4.8 | 20.9 | 0.00 | 0.00 | 0.00 | 83 | 1046.3 |
| 20260510060903 | 9 | 50 | 4.8 | 17.7 | 0.00 | 0.00 | 0.00 | 84 | 1046.2 |
| 20260510060003 | 8 | 55 | 6.4 | 17.7 | 0.00 | 0.00 | 0.00 | 85 | 1046.1 |
| 20260510055403 | 8 | 48 | 3.2 | 20.9 | 0.00 | 0.00 | 0.00 | 85 | 1046.1 |
| 20260510054503 | 8 | 48 | 1.6 | 14.5 | 0.00 | 0.00 | 0.00 | 86 | 1046.1 |
| 20260510053603 | 8 | 60 | 4.8 | 17.7 | 0.00 | 0.00 | 0.00 | 86 | 1046.2 |
| 20260510052703 | 8 | 47 | 6.4 | 22.5 | 0.00 | 0.00 | 0.00 | 86 | 1046.0 |
| 20260510051803 | 8 | 45 | 6.4 | 17.7 | 0.00 | 0.00 | 0.00 | 87 | 1046.1 |
| 20260510050903 | 8 | 40 | 3.2 | 17.7 | 0.00 | 0.00 | 0.00 | 87 | 1046.0 |
| 20260510050003 | 8 | 37 | 4.8 | 17.7 | 0.00 | 0.00 | 0.00 | 87 | 1045.9 |
| 20260510045403 | 8 | 52 | 3.2 | 17.7 | 0.00 | 0.00 | 0.00 | 87 | 1046.1 |
| 20260510044504 | 8 | 47 | 3.2 | 17.7 | 0.00 | 0.00 | 0.00 | 87 | 1046.0 |
| 20260510043815 | 8 | 47 | 4.8 | 17.7 | 0.00 | 0.00 | 0.00 | 87 | 1046.1 |
| 20260510042703 | 8 | 64 | 4.8 | 12.9 | 0.00 | 0.00 | 0.00 | 87 | 1046.2 |
| 20260510041803 | 8 | 53 | 3.2 | 17.7 | 0.00 | 0.00 | 0.00 | 87 | 1046.1 |
| 20260510040903 | 8 | 45 | 8.0 | 17.7 | 0.00 | 0.00 | 0.00 | 87 | 1046.1 |
| 20260510040214 | 8 | 56 | 6.4 | 11.3 | 0.00 | 0.00 | 0.00 | 87 | 1046.2 |
| 20260510035616 | 8 | 63 | 6.4 | 14.5 | 0.00 | 0.00 | 0.00 | 87 | 1046.1 |
| 20260510034713 | 8 | 44 | 4.8 | 22.5 | 0.00 | 0.00 | 0.00 | 87 | 1046.4 |
| 20260510033816 | 8 | 46 | 4.8 | 14.5 | 0.00 | 0.00 | 0.00 | 87 | 1046.4 |
| 20260510032703 | 8 | 48 | 4.8 | 14.5 | 0.00 | 0.00 | 0.00 | 87 | 1046.5 |
| 20260510031803 | 8 | 59 | 4.8 | 11.3 | 0.00 | 0.00 | 0.00 | 87 | 1046.7 |
| 20260510030903 | 8 | 51 | 1.6 | 9.7 | 0.00 | 0.00 | 0.00 | 87 | 1046.6 |
| 20260510030215 | 8 | 48 | 3.2 | 12.9 | 0.00 | 0.00 | 0.00 | 87 | 1046.6 |
| 20260510025403 | 8 | 48 | 3.2 | 17.7 | 0.00 | 0.00 | 0.00 | 87 | 1046.6 |
| 20260510024714 | 8 | 37 | 0.0 | 17.7 | 0.00 | 0.00 | 0.00 | 87 | 1046.6 |
| 20260510023603 | 8 | 53 | 4.8 | 20.9 | 0.00 | 0.00 | 0.00 | 87 | 1046.5 |
| 20260510022914 | 8 | 56 | 9.7 | 20.9 | 0.00 | 0.00 | 0.00 | 88 | 1046.4 |
| 20260510021803 | 8 | 44 | 6.4 | 14.5 | 0.00 | 0.00 | 0.00 | 88 | 1046.5 |
| 20260510020903 | 8 | 43 | 6.4 | 17.7 | 0.00 | 0.00 | 0.00 | 88 | 1046.7 |
| 20260510020003 | 8 | 44 | 3.2 | 14.5 | 0.00 | 0.00 | 0.00 | 88 | 1046.7 |
| 20260510015403 | 8 | 50 | 6.4 | 14.5 | 0.00 | 0.00 | 0.00 | 88 | 1046.9 |
| 20260510014503 | 8 | 36 | 4.8 | 11.3 | 0.00 | 0.00 | 0.00 | 88 | 1046.8 |
| 20260510013603 | 8 | 39 | 3.2 | 12.9 | 0.00 | 0.00 | 0.00 | 87 | 1046.8 |
| 20260510012703 | 8 | 54 | 3.2 | 12.9 | 0.00 | 0.00 | 0.00 | 87 | 1046.6 |
| 20260510011803 | 8 | 56 | 3.2 | 12.9 | 0.00 | 0.00 | 0.00 | 87 | 1046.6 |
| 20260510011114 | 8 | 52 | 4.8 | 12.9 | 0.00 | 0.00 | 0.00 | 86 | 1046.8 |
| 20260510010003 | 8 | 35 | 3.2 | 11.3 | 0.00 | 0.00 | 0.00 | 85 | 1046.5 |
| 20260510005403 | 8 | 33 | 3.2 | 11.3 | 0.00 | 0.00 | 0.00 | 84 | 1046.7 |
| 20260510004715 | 8 | 51 | 4.8 | 12.9 | 0.00 | 0.00 | 0.00 | 83 | 1046.5 |
| 20260510003603 | 9 | 53 | 3.2 | 12.9 | 0.00 | 0.00 | 0.00 | 81 | 1046.7 |
| 20260510002703 | 9 | 46 | 3.2 | 12.9 | 0.00 | 0.00 | 0.00 | 78 | 1046.5 |
| 20260510001803 | 9 | 47 | 3.2 | 9.7 | 0.00 | 0.00 | 0.00 | 73 | 1046.7 |
| 20260510000903 | 9 | 86 | 3.2 | 17.7 | 0.00 | 0.00 | 0.00 | 70 | 1046.7 |
| 20260510000003 | 10 | 62 | 4.8 | 17.7 | 0.00 | 0.00 | 0.00 | 67 | 1046.6 |
| 20260509235403 | 10 | 51 | 4.8 | 12.9 | 0.00 | 0.00 | 0.00 | 65 | 1046.7 |
| 20260509234503 | 10 | 59 | 3.2 | 17.7 | 0.00 | 0.00 | 0.00 | 64 | 1046.8 |
| 20260509233603 | 11 | 54 | 3.2 | 9.7 | 0.00 | 0.00 | 0.00 | 62 | 1046.9 |
| 20260509232703 | 11 | 51 | 6.4 | 9.7 | 0.00 | 0.00 | 0.00 | 63 | 1046.8 |
| 20260509231803 | 11 | 55 | 3.2 | 14.5 | 0.00 | 0.00 | 0.00 | 63 | 1046.8 |
| 20260509230903 | 11 | 56 | 4.8 | 12.9 | 0.00 | 0.00 | 0.00 | 61 | 1046.7 |
| 20260509230003 | 11 | 45 | 6.4 | 11.3 | 0.00 | 0.00 | 0.00 | 60 | 1046.8 |
| 20260509225614 | 11 | 46 | 4.8 | 9.7 | 0.00 | 0.00 | 0.00 | 60 | 1046.7 |
| 20260509224503 | 12 | 53 | 3.2 | 12.9 | 0.00 | 0.00 | 0.00 | 59 | 1046.7 |
| 20260509223603 | 12 | 62 | 6.4 | 11.3 | 0.00 | 0.00 | 0.00 | 58 | 1046.6 |
| 20260509222703 | 12 | 51 | 1.6 | 9.7 | 0.00 | 0.00 | 0.00 | 56 | 1046.7 |
| 20260509221803 | 12 | 53 | 3.2 | 9.7 | 0.00 | 0.00 | 0.00 | 55 | 1046.6 |
| 20260509220903 | 12 | 49 | 3.2 | 11.3 | 0.00 | 0.00 | 0.00 | 54 | 1046.6 |
| 20260509220003 | 12 | 33 | 3.2 | 9.7 | 0.00 | 0.00 | 0.00 | 52 | 1046.5 |
| 20260509215403 | 13 | 53 | 4.8 | 9.7 | 0.00 | 0.00 | 0.00 | 52 | 1046.6 |
| 20260509214503 | 13 | 56 | 1.6 | 14.5 | 0.00 | 0.00 | 0.00 | 51 | 1046.6 |
| 20260509213603 | 13 | 41 | 4.8 | 11.3 | 0.00 | 0.00 | 0.00 | 51 | 1046.5 |
| 20260509212917 | 13 | 41 | 0.0 | 9.7 | 0.00 | 0.00 | 0.00 | 51 | 1046.5 |
| 20260509211803 | 13 | 61 | 1.6 | 6.4 | 0.00 | 0.00 | 0.00 | 50 | 1046.0 |
| 20260509211117 | 13 | 58 | 1.6 | 6.4 | 0.00 | 0.00 | 0.00 | 49 | 1046.0 |
| 20260509210003 | 13 | 58 | 3.2 | 6.4 | 0.00 | 0.00 | 0.00 | 48 | 1046.1 |
| 20260509205403 | 13 | 52 | 3.2 | 6.4 | 0.00 | 0.00 | 0.00 | 47 | 1046.2 |
| 20260509204503 | 13 | 43 | 0.0 | 6.4 | 0.00 | 0.00 | 0.00 | 46 | 1046.2 |
| 20260509203603 | 14 | 51 | 1.6 | 3.2 | 0.00 | 0.00 | 0.00 | 46 | 1046.1 |
| 20260509202912 | 14 | 49 | 0.0 | 6.4 | 0.00 | 0.00 | 0.00 | 45 | 1045.9 |
| 20260509201803 | 14 | 35 | 0.0 | 6.4 | 0.00 | 0.00 | 0.00 | 44 | 1045.8 |
| 20260509200903 | 14 | 347 | 1.6 | 6.4 | 0.00 | 0.00 | 0.00 | 43 | 1046.0 |
| 20260509200003 | 14 | 71 | 0.0 | 3.2 | 0.00 | 0.00 | 0.00 | 43 | 1045.7 |
| 20260509195616 | 14 | 32 | 0.0 | 3.2 | 0.00 | 0.00 | 0.00 | 42 | 1045.8 |
| 20260509194713 | 15 | 254 | 0.0 | 6.4 | 0.00 | 0.00 | 0.00 | 41 | 1045.9 |
| 20260509193603 | 15 | 58 | 0.0 | 3.2 | 0.00 | 0.00 | 0.00 | 40 | 1045.5 |
| 20260509192703 | 15 | 38 | 1.6 | 6.4 | 0.00 | 0.00 | 0.00 | 39 | 1045.5 |
| 20260509191803 | 15 | 36 | 1.6 | 6.4 | 0.00 | 0.00 | 0.00 | 40 | 1045.3 |
| 20260509191113 | 16 | 47 | 0.0 | 6.4 | 0.00 | 0.00 | 0.00 | 40 | 1045.4 |
| 20260509190003 | 16 | 49 | 0.0 | 12.9 | 0.00 | 0.00 | 0.00 | 39 | 1045.4 |
| 20260509185403 | 16 | 40 | 3.2 | 9.7 | 0.00 | 0.00 | 0.00 | 39 | 1045.3 |
| 20260509184714 | 16 | 17 | 3.2 | 6.4 | 0.00 | 0.00 | 0.00 | 38 | 1045.4 |
| 20260509183603 | 17 | 5 | 1.6 | 6.4 | 0.00 | 0.00 | 0.00 | 38 | 1045.3 |
| 20260509182703 | 17 | 21 | 1.6 | 11.3 | 0.00 | 0.00 | 0.00 | 40 | 1045.3 |
| 20260509181803 | 17 | 45 | 1.6 | 11.3 | 0.00 | 0.00 | 0.00 | 40 | 1045.0 |
| 20260509180903 | 17 | 95 | 3.2 | 11.3 | 0.00 | 0.00 | 0.00 | 39 | 1045.0 |
| 20260509180003 | 17 | 133 | 1.6 | 6.4 | 0.00 | 0.00 | 0.00 | 40 | 1045.0 |
| 20260509175612 | 18 | 49 | 1.6 | 6.4 | 0.00 | 0.00 | 0.00 | 39 | 1044.8 |
| 20260509174503 | 18 | 41 | 3.2 | 17.7 | 0.00 | 0.00 | 0.00 | 40 | 1044.8 |
| 20260509173603 | 18 | 40 | 6.4 | 17.7 | 0.00 | 0.00 | 0.00 | 39 | 1044.8 |
| 20260509172703 | 18 | 71 | 3.2 | 12.9 | 0.00 | 0.00 | 0.00 | 40 | 1044.7 |
| 20260509171803 | 19 | 356 | 3.2 | 17.7 | 0.00 | 0.00 | 0.00 | 40 | 1044.9 |
| 20260509170903 | 18 | 53 | 3.2 | 17.7 | 0.00 | 0.00 | 0.00 | 40 | 1044.7 |
| 20260509170003 | 19 | 52 | 3.2 | 17.7 | 0.00 | 0.00 | 0.00 | 38 | 1045.0 |
| 20260509165403 | 20 | 72 | 4.8 | 17.7 | 0.00 | 0.00 | 0.00 | 38 | 1044.9 |
| 20260509164503 | 20 | 126 | 3.2 | 12.9 | 0.00 | 0.00 | 0.00 | 37 | 1044.7 |
| 20260509163603 | 20 | 61 | 3.2 | 9.7 | 0.00 | 0.00 | 0.00 | 36 | 1044.6 |
| 20260509162703 | 20 | 81 | 3.2 | 14.5 | 0.00 | 0.00 | 0.00 | 35 | 1044.7 |
| 20260509161803 | 20 | 174 | 3.2 | 14.5 | 0.00 | 0.00 | 0.00 | 35 | 1044.7 |
| 20260509160903 | 20 | 65 | 3.2 | 12.9 | 0.00 | 0.00 | 0.00 | 34 | 1044.8 |
| 20260509160003 | 21 | 77 | 3.2 | 11.3 | 0.00 | 0.00 | 0.00 | 33 | 1044.9 |
| 20260509155403 | 21 | 160 | 0.0 | 9.7 | 0.00 | 0.00 | 0.00 | 32 | 1044.8 |
| 20260509154503 | 21 | 216 | 3.2 | 9.7 | 0.00 | 0.00 | 0.00 | 31 | 1044.9 |
| 20260509153813 | 21 | 147 | 1.6 | 11.3 | 0.00 | 0.00 | 0.00 | 31 | 1044.9 |
| 20260509152703 | 21 | 200 | 3.2 | 11.3 | 0.00 | 0.00 | 0.00 | 32 | 1045.0 |
| 20260509151803 | 21 | 202 | 3.2 | 9.7 | 0.00 | 0.00 | 0.00 | 32 | 1044.7 |
| 20260509150903 | 21 | 120 | 3.2 | 9.7 | 0.00 | 0.00 | 0.00 | 33 | 1044.8 |
| 20260509150003 | 21 | 61 | 1.6 | 6.4 | 0.00 | 0.00 | 0.00 | 33 | 1044.9 |
| 20260509145403 | 21 | 103 | 3.2 | 9.7 | 0.00 | 0.00 | 0.00 | 33 | 1044.7 |
| 20260509144503 | 21 | 59 | 6.4 | 14.5 | 0.00 | 0.00 | 0.00 | 32 | 1044.6 |
| 20260509143814 | 22 | 136 | 1.6 | 6.4 | 0.00 | 0.00 | 0.00 | 32 | 1044.8 |
| 20260509142703 | 21 | 251 | 3.2 | 9.7 | 0.00 | 0.00 | 0.00 | 32 | 1044.7 |
| 20260509141803 | 20 | 75 | 3.2 | 11.3 | 0.00 | 0.00 | 0.00 | 33 | 1044.6 |
| 20260509140903 | 21 | 93 | 6.4 | 11.3 | 0.00 | 0.00 | 0.00 | 33 | 1044.7 |